When you browse on this site, cookies collect data to enhance your experience and personalize the content and advertising you see.
Visit our Privacy Policy to learn more. By continuing to use the site, you agree to this use of cookies and data.
  • In Hungary
  • List of Countries
  • For 7 days
  • Water Temperature
  • Weather Map
  • News
  • Weather Widgets
  • user-avatar
    Login

    Hourly Weather Vymly

    Today, 24 January, Friday

    Time Temperature Precipitation Wind Pressure Humidity
    00:00 -8°C° 0 mm 3 mps 740 mmHg 82%
    01:00 -8°C° 0 mm 3 mps 739 mmHg 82%
    02:00 -7°C° 0 mm 3 mps 739 mmHg 83%
    03:00 -7°C° 0 mm 3 mps 738 mmHg 85%
    04:00 -8°C° 0 mm 4 mps 737 mmHg 88%
    05:00 -7°C° 0 mm 4 mps 736 mmHg 90%
    06:00 -7°C° 0.2 mm 5 mps 735 mmHg 91%
    07:00 -6°C° 0.2 mm 5 mps 735 mmHg 93%
    08:00 -6°C° 0.2 mm 6 mps 734 mmHg 94%
    09:00 -5°C° 0.3 mm 6 mps 733 mmHg 92%
    10:00 -4°C° 0.3 mm 6 mps 732 mmHg 91%
    11:00 -4°C° 0.3 mm 6 mps 731 mmHg 89%
    12:00 -3°C° 0.1 mm 6 mps 731 mmHg 90%
    13:00 -2°C° 0.1 mm 5 mps 731 mmHg 92%
    14:00 -1°C° 0.1 mm 5 mps 730 mmHg 93%
    15:00 -1°C° 0.5 mm 5 mps 730 mmHg 94%
    16:00 -1°C° 0.5 mm 4 mps 729 mmHg 96%
    17:00 -1°C° 0.5 mm 4 mps 729 mmHg 97%
    18:00 -1°C° 0.1 mm 5 mps 729 mmHg 93%
    19:00 -2°C° 0.1 mm 5 mps 730 mmHg 90%
    20:00 -3°C° 0.1 mm 6 mps 730 mmHg 86%
    21:00 -4°C° 0 mm 5 mps 730 mmHg 87%
    22:00 -4°C° 0 mm 5 mps 730 mmHg 87%
    23:00 -5°C° 0 mm 5 mps 731 mmHg 87%

    Tomorrow, 25 January, Saturday

    Time Temperature Precipitation Wind Pressure Humidity
    00:00 -5°C° 0 mm 5 mps 731 mmHg 88%
    01:00 -6°C° 0 mm 5 mps 730 mmHg 89%
    02:00 -5°C° 0 mm 4 mps 730 mmHg 90%
    03:00 -5°C° 0 mm 5 mps 730 mmHg 90%
    04:00 -5°C° 0 mm 5 mps 729 mmHg 90%
    05:00 -4°C° 0 mm 5 mps 729 mmHg 90%
    06:00 -4°C° 0 mm 5 mps 729 mmHg 88%
    07:00 -3°C° 0 mm 4 mps 729 mmHg 87%
    08:00 -2°C° 0 mm 4 mps 728 mmHg 86%
    09:00 -2°C° 0.1 mm 5 mps 728 mmHg 87%
    10:00 -2°C° 0.1 mm 5 mps 727 mmHg 89%
    11:00 -3°C° 0.1 mm 6 mps 727 mmHg 90%
    12:00 -3°C° 0.2 mm 6 mps 726 mmHg 84%
    13:00 -3°C° 0.2 mm 6 mps 726 mmHg 78%
    14:00 -3°C° 0.2 mm 6 mps 726 mmHg 71%
    15:00 -4°C° 0 mm 6 mps 726 mmHg 74%
    16:00 -5°C° 0 mm 6 mps 727 mmHg 76%
    17:00 -6°C° 0 mm 6 mps 727 mmHg 78%
    18:00 -6°C° 0 mm 6 mps 728 mmHg 79%
    19:00 -6°C° 0 mm 6 mps 728 mmHg 80%
    20:00 -6°C° 0 mm 6 mps 729 mmHg 81%
    21:00 -6°C° 0 mm 6 mps 729 mmHg 82%
    22:00 -6°C° 0 mm 6 mps 730 mmHg 83%
    23:00 -6°C° 0 mm 6 mps 731 mmHg 85%

    Day after tomorrow, 26 January, Sunday

    Time Temperature Precipitation Wind Pressure Humidity
    00:00 -6°C° 0.1 mm 6 mps 731 mmHg 84%
    01:00 -6°C° 0.1 mm 6 mps 732 mmHg 83%
    02:00 -7°C° 0.1 mm 5 mps 733 mmHg 82%
    03:00 -8°C° 0 mm 6 mps 734 mmHg 83%
    04:00 -8°C° 0 mm 6 mps 735 mmHg 83%
    05:00 -8°C° 0 mm 6 mps 736 mmHg 83%
    06:00 -7°C° 0 mm 5 mps 737 mmHg 84%
    07:00 -8°C° 0 mm 5 mps 737 mmHg 85%
    08:00 -8°C° 0 mm 5 mps 738 mmHg 85%
    09:00 -7°C° 0 mm 5 mps 738 mmHg 83%
    10:00 -7°C° 0 mm 5 mps 739 mmHg 82%
    11:00 -6°C° 0 mm 5 mps 739 mmHg 80%
    12:00 -6°C° 0 mm 5 mps 739 mmHg 80%
    13:00 -6°C° 0 mm 5 mps 740 mmHg 80%
    14:00 -6°C° 0 mm 5 mps 740 mmHg 80%
    15:00 -5°C° 0 mm 4 mps 740 mmHg 81%
    16:00 -5°C° 0 mm 4 mps 739 mmHg 83%
    17:00 -5°C° 0 mm 3 mps 739 mmHg 85%
    18:00 -5°C° 0.2 mm 3 mps 739 mmHg 89%
    19:00 -4°C° 0.2 mm 2 mps 739 mmHg 93%
    20:00 -4°C° 0.2 mm 2 mps 739 mmHg 96%
    21:00 -4°C° 0.6 mm 2 mps 738 mmHg 97%
    22:00 -3°C° 0.6 mm 2 mps 738 mmHg 97%
    23:00 -3°C° 0.6 mm 2 mps 737 mmHg 97%

    27 January, Monday

    Time Temperature Precipitation Wind Pressure Humidity
    00:00 -3°C° 0.4 mm 2 mps 737 mmHg 97%
    01:00 -2°C° 0.4 mm 2 mps 737 mmHg 97%
    02:00 -2°C° 0.4 mm 2 mps 737 mmHg 97%
    03:00 -2°C° 0.4 mm 2 mps 737 mmHg 98%
    04:00 -2°C° 0.4 mm 2 mps 738 mmHg 98%
    05:00 0°C° 0.4 mm 1 mps 738 mmHg 98%
    06:00 0°C° 0.3 mm 1 mps 738 mmHg 98%
    07:00 -1°C° 0.3 mm 1 mps 738 mmHg 98%
    08:00 -1°C° 0.3 mm 1 mps 739 mmHg 98%
    09:00 -1°C° 0.2 mm 0 mps 739 mmHg 97%
    10:00 -1°C° 0.2 mm 0 mps 739 mmHg 97%
    11:00 -1°C° 0.2 mm 0 mps 740 mmHg 97%
    12:00 0°C° 0.3 mm 0 mps 740 mmHg 97%
    13:00 +1°C° 0.3 mm 1 mps 739 mmHg 97%
    14:00 +1°C° 0.3 mm 1 mps 739 mmHg 98%
    15:00 +1°C° 0.4 mm 1 mps 740 mmHg 98%
    16:00 +1°C° 0.4 mm 1 mps 740 mmHg 98%
    17:00 -1°C° 0.4 mm 2 mps 740 mmHg 98%
    18:00 -1°C° 0.2 mm 2 mps 740 mmHg 98%
    19:00 -1°C° 0.2 mm 2 mps 740 mmHg 98%
    20:00 -2°C° 0.2 mm 2 mps 740 mmHg 97%
    21:00 -2°C° 0.2 mm 2 mps 740 mmHg 97%
    22:00 0°C° 0.2 mm 1 mps 740 mmHg 97%
    23:00 0°C° 0.2 mm 1 mps 740 mmHg 97%

    28 January, Tuesday

    Time Temperature Precipitation Wind Pressure Humidity
    00:00 0°C° 0.1 mm 1 mps 740 mmHg 97%
    01:00 0°C° 0.1 mm 1 mps 740 mmHg 97%
    02:00 0°C° 0.1 mm 1 mps 740 mmHg 97%
    03:00 0°C° 0.1 mm 1 mps 740 mmHg 97%
    04:00 0°C° 0.1 mm 1 mps 740 mmHg 97%
    05:00 0°C° 0.1 mm 1 mps 740 mmHg 97%
    06:00 0°C° 0.2 mm 1 mps 741 mmHg 97%
    07:00 0°C° 0.2 mm 1 mps 741 mmHg 97%
    08:00 -2°C° 0.2 mm 2 mps 741 mmHg 97%
    09:00 -2°C° 0.1 mm 2 mps 741 mmHg 98%
    10:00 -2°C° 0.1 mm 2 mps 741 mmHg 98%
    11:00 -2°C° 0.1 mm 2 mps 741 mmHg 98%
    12:00 -2°C° 0.1 mm 2 mps 741 mmHg 98%
    13:00 -2°C° 0.1 mm 2 mps 741 mmHg 98%
    14:00 -2°C° 0.1 mm 2 mps 741 mmHg 98%
    15:00 -2°C° 0.1 mm 2 mps 741 mmHg 97%
    16:00 -1°C° 0.1 mm 2 mps 741 mmHg 97%
    17:00 -1°C° 0.1 mm 2 mps 741 mmHg 97%
    18:00 -1°C° 0.1 mm 3 mps 741 mmHg 97%
    19:00 -1°C° 0.1 mm 3 mps 741 mmHg 97%
    20:00 -1°C° 0.1 mm 3 mps 740 mmHg 97%
    21:00 -2°C° 0 mm 4 mps 740 mmHg 96%
    22:00 -2°C° 0 mm 4 mps 740 mmHg 96%
    23:00 -2°C° 0 mm 4 mps 740 mmHg 95%

    29 January, Wednesday

    Time Temperature Precipitation Wind Pressure Humidity
    00:00 -2°C° 0 mm 5 mps 740 mmHg 95%
    01:00 -2°C° 0 mm 5 mps 739 mmHg 95%
    02:00 -2°C° 0 mm 5 mps 739 mmHg 94%
    03:00 -2°C° 0.1 mm 5 mps 738 mmHg 95%
    04:00 -2°C° 0.1 mm 5 mps 738 mmHg 96%
    05:00 -1°C° 0.1 mm 5 mps 738 mmHg 97%
    06:00 -1°C° 0 mm 5 mps 737 mmHg 97%
    07:00 -2°C° 0 mm 6 mps 737 mmHg 96%
    08:00 -2°C° 0 mm 6 mps 737 mmHg 96%
    09:00 -2°C° 0.1 mm 7 mps 736 mmHg 96%
    10:00 -2°C° 0.1 mm 7 mps 736 mmHg 96%
    11:00 -2°C° 0.1 mm 7 mps 736 mmHg 97%
    12:00 -2°C° 0.6 mm 7 mps 735 mmHg 97%
    13:00 -2°C° 0.6 mm 6 mps 734 mmHg 97%
    14:00 -2°C° 0.6 mm 6 mps 734 mmHg 97%
    15:00 -2°C° 0.5 mm 6 mps 734 mmHg 97%
    16:00 -2°C° 0.5 mm 5 mps 734 mmHg 97%
    17:00 -2°C° 0.5 mm 5 mps 734 mmHg 97%
    18:00 -2°C° 0.3 mm 4 mps 734 mmHg 97%
    19:00 -1°C° 0.3 mm 3 mps 734 mmHg 97%
    20:00 0°C° 0.3 mm 3 mps 734 mmHg 98%
    21:00 0°C° 0 mm 3 mps 734 mmHg 95%
    22:00 -2°C° 0 mm 4 mps 734 mmHg 93%
    23:00 -2°C° 0 mm 4 mps 734 mmHg 91%
    Show more